Location: Stendal
(52.5994°N, 11.8400°E)
Time: 17:38:33
(UTC+01:00)

Envisat - Pass Details

Date: 09 October 2022
Orbit: 763 x 765 km, 98.2° (Epoch: 30 November)

Event Time Altitude Azimuth Distance (km) Brightness Sun altitude
Rises 05:31:48 0° 16° (NNE) 3,247 6.7 -18.2°
Reaches altitude 10° 05:34:08 10° 19° (NNE) 2,316 5.9 -17.9°
Maximum altitude 05:39:13 67° 102° (ESE) 833 3.4 -17.1°
Drops below altitude 10° 05:44:16 10° 185° (S) 2,298 5.3 -16.4°
Sets 05:46:35 0° 189° (S) 3,219 6.0 -16.1°
